Location: Bjelajci
(45.0103°N, 16.1758°E)
Time: 19:58:32
(UTC+00:00)

Aureole 1 Rocket - Pass Details

Date: 14 July 2020
Orbit: 377 x 1380 km, 73.9° (Epoch: 06 August)

Event Time Altitude Azimuth Distance (km) Brightness Sun altitude
Exits shadow 00:43:18 34° 166° (SSE) 1,118 3.9 -19.4°
Maximum altitude 00:45:08 57° 104° (ESE) 867 3.8 -19.3°
Drops below altitude 10° 00:50:53 10° 28° (NNE) 2,606 7.5 -18.8°
Sets 00:53:48 0° 25° (NNE) 3,729 8.8 -18.6°
